User: anonymous   Login
Location: Mount Wilson Observatory
(34.2257°N, 118.0571°W)
Time: 08:20:08
(UTC-07:00)
Language:

ATLAS 3B CENTAUR R/B - Orbit

View from above orbital plane
View from above orbital plane
View from above satellite
View from above satellite

Ground track
Ground track

The orbit data is extracted from the following two-line orbital elements,

1 28118U 03057B   17296.00077737  .00109185  49935-6  15557-2 0  9996
2 28118  28.1043 148.3543 2975209 100.1245 294.3349  9.52894038301742
Epoch (UTC): 23 October 2017 00:01:07
Eccentricity: 0.2975209
inclination: 28.1043°
perigee height: 224 km
apogee height: 5816 km
right ascension of ascending node: 148.3543°
argument of perigee: 100.1245°
revolutions per day: 9.52894038
mean anomaly at epoch: 294.3349°
orbit number at epoch: 30174

The dashed part of the orbit path shows where the satellite is in the earth's shadow,  

DLR